Location: Keewatin
(47.4004°N, 93.0827°W)
Time: 03:34:27
(UTC+00:00)

ZACube-1 - Pass Details

Date: 02 March 2020
Orbit: 584 x 667 km, 97.6° (Epoch: 04 April)

Event Time Altitude Azimuth Distance (km) Brightness Sun altitude
Rises 00:42:57 0° 215° (SW) 2,944 ? -8.3°
Reaches altitude 10° 00:46:12 10° 241° (WSW) 2,057 ? -8.9°
Maximum altitude 00:48:31 14° 272° (W) 1,822 ? -9.3°
Drops below altitude 10° 00:50:53 10° 304° (NW) 2,085 ? -9.7°
Sets 00:54:13 0° 330° (NNW) 3,014 ? -10.2°
